Location: Poughquag
(41.6090°N, 73.6820°W)
Time: 19:12:10
(UTC-04:00)

NOAA 18 - Pass Details

Date: 18 September 2024
Orbit: 837 x 859 km, 98.9° (Epoch: 04 October)

Event Time Altitude Azimuth Distance (km) Brightness Sun altitude
Exits shadow 22:18:19 19° 15° (NNE) 1,929 7.2 -35.3°
Drops below altitude 10° 22:20:01 10° 4° (N) 2,483 8.0 -35.5°
Sets 22:22:35 0° 356° (N) 3,419 8.9 -35.8°
